Khama Kekana

Olheiro - Kaizer Chiefs
4 Abr 2027
Domingo
Processo

Personalidade

Adaptabilidade (13) Ambição (9) Controvérsia (20) Lealdade (12) Pressão (11) Profissionalismo (7) Espírito Esportivo (11) Temperamento (16)

Perfil

Estilo de Treinamento Democrático
Licença Nacional A
Determinação 5
Gestão de Pessoas 12
Motivação 5
Disciplina 6
Satisfação no Trabalho
63%
Fadiga
0%
Função Olheiro
Salário 33.7K p/s
Contrato 14.03.2029

Desempenho

Comportamento Bom
Eficácia do Treinamento
18%
Desenvolvimento do Jogador
60%
Prevenção de Lesões
50%
Implementação Tática
30%

Eventos Recentes

Avaliou um jogador agora
Avaliou um jogador agora
Participou de uma reunião de recrutamento agora
Avaliou um jogador agora
Avaliou um jogador agora
Avaliou um jogador 7d atrás
Avaliou um jogador 7d atrás
Avaliou um jogador 7d atrás

Monitorando agora

67
Jogador Clube Status Habilidade Confiança Observado Última observação Último voto
Kamogelo Sebelebele Orlando Pirates Ativo 105 / 127 40% 2 03.04.2027 -
Lorenzo Pirola Olympiacos Ativo 156 / 144 40% 1 03.04.2027 -
Jon Ander Olasagasti Levante Ativo 133 / 133 40% 2 02.04.2027 -
Tyler Onyango Sheffield Wednesday Ativo 103 / 100 40% 1 02.04.2027 -
Giovanni Simeone Torino Ativo 139 / 125 40% 3 01.04.2027 -
Slobodan Tedić Akron Ativo 111 / 100 40% 2 01.04.2027 -
Moses Cobnan Krasnodar Ativo 111 / 124 40% 2 31.03.2027 -
Thom van Bergen Groningen Ativo 125 / 128 40% 1 31.03.2027 -
Mohamed Konaté Akhmat Grozny Ativo 112 / 116 40% 2 29.03.2027 -
Negueba Mirassol Ativo 135 / 113 40% 3 29.03.2027 -
Salvador Blopá Sporting CP Ativo 109 / 136 40% 1 29.03.2027 -
Daniel Banjaqui Benfica Ativo 92 / 118 40% 1 29.03.2027 -
Marcos Cuenca Zaragoza Ativo 96 / 107 40% 2 28.03.2027 -
Matej Trusa DAC Dunajska Streda Ativo 128 / 101 40% 1 28.03.2027 -
Tenton Yenne Baltika Ativo 106 / 119 40% 4 26.03.2027 -
François Kamano Sochi Ativo 138 / 121 40% 4 26.03.2027 -
Tomás Ribeiro Cultural Leonesa Ativo 131 / 133 40% 2 26.03.2027 -
Lucas Soares Santa Clara Ativo 115 / 115 40% 1 25.03.2027 -
Matt Grimes Coventry City Ativo 120 / 118 40% 1 25.03.2027 -
Deano Van Rooyen Ajax Cape Town Ativo 114 / 101 40% 1 23.03.2027 -
Valentin Rosier Osasuna Ativo 143 / 116 40% 1 23.03.2027 -
Brayan Gil Baltika Ativo 127 / 121 40% 1 21.03.2027 -
Juan Cejas Ethnikos Achnas Ativo 117 / 117 40% 1 21.03.2027 -
Keagan Manyama Ajax Cape Town Ativo 128 / 111 40% 3 19.03.2027 -
Marco Bellich Juve Stabia Ativo 119 / 131 40% 2 19.03.2027 -
Pedro Marques Apollon Ativo 110 / 102 40% 1 19.03.2027 -
Julio Alonso Huesca Ativo 121 / 113 40% 1 17.03.2027 -
Brenner Vasco da Gama Ativo 108 / 125 40% 1 16.03.2027 -
Sambou Soumano FC Lorient Ativo 111 / 136 40% 2 15.03.2027 -
Oumar Camara Vitoria Guimaraes Ativo 125 / 131 40% 4 13.03.2027 -
Dani Gómez Zaragoza Ativo 117 / 120 40% 2 13.03.2027 -
Victor Melekhin Rostov Ativo 113 / 133 40% 2 10.03.2027 -
Bojan Roganović Torpedo Moscow Ativo 113 / 96 40% 1 10.03.2027 -
Temirkan Sundukov Dinamo Makhachkala Ativo 102 / 97 40% 2 08.03.2027 -
Luka Vešner Tičić Nizhniy Novgorod Ativo 115 / 125 40% 1 08.03.2027 -
Lebogang Erasmus Platinum Stars Ativo 118 / 104 40% 1 07.03.2027 -
Keagan Mothiba SuperSport United Ativo 102 / 122 40% 1 07.03.2027 -
Jack Currie Oxford United Ativo 138 / 136 40% 1 05.03.2027 -
Jhon Palacios Orenburg Ativo 133 / 114 40% 1 05.03.2027 -
Anderson Arroyo Rubin Ativo 119 / 127 40% 1 04.03.2027 -
Nathan Gassama Baltika Ativo 113 / 125 40% 1 04.03.2027 -
Gavin Kilkenny Swindon Town Ativo 97 / 117 40% 2 03.03.2027 -
Goodman Mosele Chippa United Ativo 111 / 118 40% 1 03.03.2027 -
Luan Patrick Estrela da Amadora Ativo 125 / 121 40% 2 27.02.2027 -
Luther Billiat Ajax Cape Town Ativo 139 / 132 40% 1 27.02.2027 -
Chuba Akpom Ipswich Town Ativo 144 / 128 40% 1 24.02.2027 -
Emanuel Aiwu Apollon Ativo 137 / 117 40% 1 20.02.2027 -
Robert Mejía Orenburg Ativo 134 / 122 40% 1 20.02.2027 -
Iqraam Rayners Mamelodi Sundowns Ativo 133 / 135 40% 1 20.02.2027 -
Josh Neufville Bradford City Ativo 108 / 112 40% 1 18.02.2027 -
Miro Dinamo Makhachkala Ativo 121 / 113 40% 1 16.02.2027 -
Edarlyn Reyes Arsenal Tula Ativo 106 / 104 40% 1 15.02.2027 -
Léo Leroy Preston Ativo 106 / 124 40% 2 14.02.2027 -
Lewis Freestone Stevenage Ativo 94 / 104 40% 1 14.02.2027 -
Vinicius Tobias Shakhtar Ativo 125 / 121 40% 2 13.02.2027 -
Andrey Langovich Rostov Ativo 107 / 118 40% 1 11.02.2027 -
Fernand Gouré Westerlo Ativo 109 / 123 40% 1 11.02.2027 -
Andrés Alarcón Dinamo Makhachkala Ativo 99 / 122 40% 1 09.02.2027 -
Veldin Hodža Rubin Ativo 108 / 111 40% 1 08.02.2027 -
Alexey Mironov Rostov Ativo 97 / 130 40% 1 08.02.2027 -
Jordan Williams Portsmouth Ativo 135 / 111 40% 1 07.02.2027 -
Itumeleng Zungu Free State Stars Ativo 121 / 117 40% 1 06.02.2027 -
Roger Hinojo Espanyol Ativo 115 / 130 40% 1 06.02.2027 -
Yegor Golenkov Rostov Ativo 139 / 120 40% 1 05.02.2027 -
Fezile Gcaba Maritzburg United Ativo 110 / 104 40% 1 03.02.2027 -
Luka Reischl ADO Den Haag Ativo 125 / 124 40% 1 01.02.2027 -
Gift Zwane Platinum Stars Ativo 125 / 110 40% 1 18.01.2027 -